全球星 M023星 (GLOBALSTAR M023)

导读

GLOBALSTAR M023是全球星系统第一代低轨移动通信卫星,于1999年2月9日发射。全球星系统由美国主导运营,旨在为全球提供语音、数据、传真等移动通信服务,作为地面蜂窝网络的延伸补充。卫星采用劳拉公司LS-400平台,三轴稳定,运行于约1414千米高度、52°倾角轨道,设计寿命7.5年,支撑全球北纬70°至南纬70°区域的覆盖,助力实现无缝漫游通信。

基本信息
目录编号:
25621
目录名称:
GLOBALSTAR M023
国际标识:
1999-004A
轨道中心:
EARTH
卫星名称:
全球星 M023星
卫星全名:
全球星 M023星 (GLOBALSTAR M023)
卫星状态:
在轨 (已飞行9985 天)
发射日期:
1999-02-09 UTC
国别 :
(GLOB)
星等 :
--
轨道信息
数据来源 国际轨道数据 AOE轨道数据
星历时间 2026-06-12T06:48:29+0800
21小时前
查看轨道信息
2026-06-10T16:00:00+0800
2天前
查看轨道信息
半长轴 7790.667km 7790.664km
偏心率 0.0009526 0.0009862
轨道倾角 52.012° 52.011°
近地点辐角 198.854° 196.671°
升交点赤经 37.931° 42.854°
平近点角 267.136° 116.349°
近地点 1405.108km 1404.843km
远地点 1419.952km 1420.211km
周期 114.057分钟 114.057分钟
每日圈数 12.625275 12.625281
详细信息
固有亮度:
5
最大亮度:
7.9
平衡模式:
三轴稳定
覆盖范围:
全球
运营商:
全球星公司
运营商所在国:
美国
使用方式:
暂无
卫星简介
全球星星座由48颗卫星加8颗备份星组成。这些卫星分布在8个倾角为52度的圆形轨道平面上,每个轨道平面6颗卫星,另有1 颗备用星。轨道高度约为1414km,传输时延和处理时延小于300ms,整个系统的覆盖区为南北纬70度以内的地区。该卫星仍在工作。
2D轨道图
3D轨道图
轨道高度分析图
轨道倾角分析图
轨道综合分析图
查看轨道综合分析图